Torna al catalogo

NIMBUS 2 DEB

AttivoLEO
NORAD 28613·DEBRIS·🇺🇸 United States

Lanciato May 15, 1966 da Vandenberg Space Force Base

Loading…

Prossimi Passaggi (prossime 24 ore)

TLE

In scadenzaSource: Space-Track

Epoca: Sep 8, 2026, 05:14 UTC

1 28613U 66040AC  26251.21864727  .00001787  00000-0  19698-2 0  9997
2 28613 100.3811  59.9943 0040958 349.4967 188.0459 13.73298022654763

Traccia NIMBUS 2 DEB in tempo reale con AllMySat

Download on the App Store